Regional Weather Roundup
Issued by NWS Cleveland, OH

Home | Current Version | Previous Version | Graphics & Text | Print | Product List | Glossary On
Versions: 1 2 3 4 5 6 7 8 9 10 11 12 13 14 15 16 17 18 19 20 21 22 23 24 25 26 27 28 29 30 31 32 33 34 35 36 37 38 39 40 41 42 43 44 45 46 47 48 49 50
633
ASUS41 KCLE 090012
RWRCLE
OHIO REGIONAL WEATHER ROUNDUP
NATIONAL WEATHER SERVICE WILMINGTON, OH
700 PM EST MON FEB 08 2016

NOTE: "FAIR" INDICATES FEW OR NO CLOUDS BELOW 12,000 FEET WITH NO
SIGNIFICANT WEATHER AND/OR OBSTRUCTIONS TO VISIBILITY.

OHZ001>008-015>018-024>027-034-035-043-044-090100-
   NORTHWEST OHIO

CITY           SKY/WX    TMP DP  RH WIND       PRES   REMARKS
DEFIANCE       FAIR      35  27  72 VRB7      29.65R WCI  29
FINDLAY        FAIR      33  25  72 W6        29.62R WCI  28
TOLEDO EXPRESS FAIR      35  25  66 W8        29.61S WCI  29
TOLEDO EXEC    CLOUDY    37  28  70 W13       29.62R
LIMA           FAIR      34  28  79 W12       29.62R WCI  25
$$

OHZ009>014-019>023-028>033-038-089-090100-
   NORTHEAST OHIO

CITY           SKY/WX    TMP DP  RH WIND       PRES   REMARKS
CLE-HOPKINS    LGT SNOW  33  31  92 SW5       29.63R FOG     WCI  29
CLE-LAKEFRONT  LGT SNOW  33  32  96 SW7       29.60S FOG     WCI  27
CUY CO. ARPT   LGT SNOW  34  32  93 W14       29.60R FOG     WCI  24
LORAIN-ELYRIA  CLOUDY    35  29  78 N5        29.61R
ASHTABULA      CLOUDY    35  32  88 SW10      29.57R WCI  27
AKRON-CANTON   MOCLDY    31  28  89 SW5       29.60R WCI  26
WOOSTER        CLOUDY    33  31  92 SW3       29.61R
MANSFIELD      CLOUDY    33  31  92 W9        29.59R WCI  25
YOUNGSTOWN     LGT SNOW  33  31  92 W10       29.58R WCI  25
$$

OHZ042-051>053-060>062-070>072-077>081-090100-
  SOUTHWEST OHIO

CITY           SKY/WX    TMP DP  RH WIND       PRES   REMARKS
CINC-COVINGTON LGT SNOW  30  28  93 W20G29    29.70R FOG     WCI  18
CINC-LUNKEN    LGT SNOW  33  32  96 W14       29.71R FOG     WCI  23
HAMILTON       LGT SNOW  32  31  96 W14       29.71R FOG     WCI  22
DAYTON         LGT SNOW  32  30  92 NW14      29.66R FOG     WCI  22
WRIGHT-PAT AFB CLOUDY    35  32  88 VRB6      29.65R WCI  30
DAYTON GENERAL LGT SNOW  33  30  88 W8        29.65R FOG     WCI  26
WILMINGTON     LGT SNOW  33  31  92 W7        29.64R FOG     WCI  27
$$

OHZ036-037-039>041-045>050-054>059-063>069-073>076-082>088-090100-
  CENTRAL AND SOUTHEAST OHIO

CITY           SKY/WX    TMP DP  RH WIND       PRES   REMARKS
COLUMBUS       LGT SNOW  34  34 100 CALM      29.63R FOG
OSU AIRPORT    MOCLDY    34  31  88 N3        29.63R
BOLTON FIELD   CLOUDY    33  33  98 CALM      29.64R
RICKENBACK AFB MOCLDY    34  32  94 CALM      29.63S
NEWARK         MOCLDY    34  31  88 CALM      29.62S FOG
MARION         CLOUDY    33  30  88 NW5       29.62S WCI  29
LANCASTER      CLOUDY    35  32  88 CALM      29.63S
ZANESVILLE     CLOUDY    36  33  89 CALM      29.63R FOG
NEW PHILLY     CLOUDY    32  30  92 CALM      29.63R
$$




USA.gov is the U.S. government's official web portal to all federal, state and local government web resources and services.